FLOCK 4BE 28

导读

FLOCK 4BE 28是美国Planet公司(原行星实验室)研制的一颗3U立方体遥感卫星,属于FLOCK鸽群SuperDove星座的组成部分,于2024年8月16日发射升空。 该卫星运行于近地太阳同步轨道,配备多光谱成像载荷,可获取高分辨率地球观测影像,为农业、林业、灾害监测等领域提供持续的对地观测数据服务,补充Planet现有在轨遥感卫星星座的观测能力。截至2026年3月,卫星已在轨正常运行约19个月,仍在设计寿命周期内开展业务运行。

基本信息
目录编号:
60519
目录名称:
FLOCK 4BE 28
国际标识:
2024-149BD
轨道中心:
EARTH
卫星名称:
FLOCK 4BE 28
卫星全名:
FLOCK 4BE 28
卫星状态:
在轨 (已飞行664 天)
发射日期:
2024-08-16 UTC
国别 :
美国 (US)
星等 :
--
轨道信息
数据来源 国际轨道数据
星历时间: 2026-06-11T12:10:02+0800
17小时前
查看轨道信息
半长轴: 6810.389km
偏心率: 0.0002945
轨道倾角: 97.375°
近地点辐角 315.574°
升交点赤经 247.850°
平近点角 44.528°
近地点: 430.246km
远地点: 434.258km
周期: 93.222分钟
每日圈数: 15.447029
详细信息
使用方式:
暂无
2D轨道图
3D轨道图
轨道高度分析图
轨道倾角分析图
轨道综合分析图
查看轨道综合分析图